User: anonymous   Login
Location: Unspecified
(0.0000°N, 0.0000°E)
Time: 01:51:34
(UTC+00:00)
Language:

WGS 5 (USA 243) - Orbit

View from above orbital plane
View from above orbital plane
View from above satellite
View from above satellite

Ground track
Ground track

The orbit data is extracted from the following two-line orbital elements,

1 39168U 13024A   23081.75154067 -.00000299  00000-0  00000+0 0  9996
2 39168   0.0096 160.4288 0000175 225.1732  12.4076  1.00270386 35979
Epoch (UTC): 22 March 2023 18:02:13
Eccentricity: 0.0000175
inclination: 0.0096°
perigee height: 35786 km
apogee height: 35787 km
right ascension of ascending node: 160.4288°
argument of perigee: 225.1732°
revolutions per day: 1.00270386
mean anomaly at epoch: 12.4076°
orbit number at epoch: 3597

The dashed part of the orbit path shows where the satellite is in the earth's shadow,  

DLR